Funds performance table by strategy

help icon
fund name 1 mth 3 mth 12 mthsort icon ytd Inception Net assets Return Date
East Capital (Lux) Turkish C EUR 9% 12% 16% 39% 0% 166M 2014-11-30
Bank Windhoek Managed A 0% 1% 16% 12% 16% 525M 2014-11-30
Pictet Water-I dy EUR 0% 3% 16% 14% 19% 2789M 2014-11-30
Plural Brasprev FIM Prev 1% 1% 16% 15% 0% 98M 2014-11-30
db x-trackers Stoxx Eurp600 Insurance 1C 4% 6% 16% 13% 1% 30M 2014-11-30
JB Inst World EF CHF B2 2% 5% 16% 14% 4% 153M 2014-11-30
SEI Asset Allc Diversified Market Gr I 2% 7% 16% 3% 4% - 2011-02-28
HSBC MSCI USA ETF 2% 3% 16% 13% 16% 440M 2014-11-30
ComStage MSCI USA TRN ETF 2% 3% 16% 13% 17% 789M 2014-11-30
Anima Fund - US Equity I 0% -3% 16% 10% 7% 43M 2012-11-30
Structura Smart Euro Equities I 0% 0% 16% 9% 7% - 2013-08-31
SIS Equity 0% 0% 16% 11% 18% 4295M 2014-11-30
HSBC GIF GEM Inflation Linked Bond ICEUR 0% 0% 16% 19% 5% 68M 2014-11-30
Lyxor ETF STOXX Europe 600 Food&Bvrg A/I 4% 5% 16% 15% 11% 183M 2014-11-30
SPDR® MSCI Europe Telecom SvcSM ETF A/I 8% 10% 16% 13% 4% 8M 2014-11-30
CFS FC W PSup-FirstChoice W Property Sec 0% -4% 16% 7% 0% 85M 2013-07-31
EV NJ Municipal Bond 0% 1% 16% 16% 6% - 2014-11-30
Wells Fargo Adv Util & High Income 0% 0% 16% 14% 8% - 2014-11-30
27four Shari'ah Active Eq. Prescient B3 0% -3% 16% 14% 22% 144M 2014-11-30
JPM Global Dynamic I (inc)-EUR 2% 5% 16% 16% 15% 533M 2014-11-30
Source MSCI USA ETF 2% 3% 16% 13% 19% 247M 2014-11-30
American Century Income & Growth Inst 2% 3% 16% 13% 6% - 2014-11-30
Pingan Investment Elite IVY 7% 13% 16% 16% 3% - 2014-11-30
Market Vectors® Retail ETF 9% 12% 16% 15% 25% - 2014-11-30
Robeco US Select Opportunities Eqs I$ 2% 2% 16% 11% 10% 1837M 2014-11-30
Schroder ISF QEP Glbl Blend I€ Acc 1% 3% 16% 15% 14% 302M 2014-11-30
ZKB-CIF World ex CH Index T 2% 5% 16% 15% 0% - 2014-11-30
Threadneedle(Lux) Eurpn Quant Eqs W 1% 7% 16% 5% -4% 0M 2013-02-28
Swisscanto (CH) MSCI USA Index NV 2% 3% 16% 13% 22% 427M 2014-11-30
CS EF (CH) Swissac EB CHF 4% 5% 16% 15% 11% 478M 2014-11-30

All our data is licensed from Morningstar UK Ltd. Important legal information